www.pogodaiklimat.ru

Погода и климат >> Архив погоды >> Пакистан >> Karachi


АРХИВ ПОГОДЫ в Karachi

Время (UTC), дата Ветер
(напр.,м/с)
 
Видим.   Явления Облачность Т
(С)
Тd
(С)
f
(%)
Тe
(С)
Тes
(С)
Комфортность P
(гПа)
Po
(гПа)
Тmin
(С)
Tmax
(С)
R
(мм)
R24
(мм)
S
(см)
15 11.09 ЮЗ 3 4000 м 5/5 200 м
[St]
+27.5 +23.9 81 +38 +38 очень
душно
1009.2 1006.5
18 11.09 ЮЗ 4 4000 м 9/9 200 м
[St]
+27.0 +23.1 79 +36 +36 очень
душно
1009.9 1007.2
21 11.09 З 3 4000 м 8/8 200 м
[St]
+27.0 +23.4 81 +37 +37 очень
душно
1008.1 1005.4
00 12.09 З 4 10 км 9/6 300 м
[St]
+27.0 +23.4 81 +37 +37 очень
душно
1007.0 1004.3
03 12.09 З 4 4000 м дым 9/6 300 м
[St]
+27.5 +23.4 78 +37 +38 очень
душно
1000.7 1004.8 +25.5
06 12.09 З 6 4000 м дым 9/9 600 м
[St]
+28.0 +23.7 77 +38 +39 очень
душно
1008.3 1005.6
09 12.09 З 7 4000 м дым 9/9 600 м
[St]
+29.0 +23.2 71 +39 +39 очень
душно
1006.5 1003.8
12 12.09 ЮЗ 4 4000 м дым 9/6 300 м
[St]
+29.0 +22.4 68 +38 +39 очень
душно
1005.1 1002.4 +30.1
15 12.09 ЮЗ 4 4000 м дым 9/6 300 м
[St]
+27.5 +23.9 81 +38 +38 очень
душно
1005.7 1003.0
18 12.09 ЮЗ 4 4000 м дым 6/6 200 м
[St]
+27.5 +23.9 81 +38 +38 очень
душно
1006.6 1003.9
21 12.09 ЮЗ 3 4000 м 6/6 200 м
[St]
+27.0 +24.1 84 +37 +37 очень
душно
1005.4 1002.7
00 13.09 ЮЗ 6 4000 м 6/6 600 м
[St]
+27.0 +23.4 81 +37 +37 очень
душно
1005.3 1002.6
03 13.09 ЮЗ 5 4000 м мгла 9/9 600 м
[St]
+27.0 +22.6 77 +36 +36 очень
душно
1005.4 1002.7 +25.5
06 13.09 З 3 4000 м мгла 9/8 300 м
[St]
+30.0 +21.1 59 +38 +40 очень
душно
1006.1 1003.4
09 13.09 ЮЗ 3 4000 м мгла 9/8 300 м
[St]
+30.0 +24.5 72 +42 +44 опасность
перегрева
1005.1 1002.4
12 13.09 ЮЗ 3 4000 м 9/8 300 м
[St]
+30.0 +20.0 55 +36 +37 очень
душно
1003.8 1001.1 +31.1
15 13.09 ЮЗ 3 4000 м 8/8 200 м
[St]
+28.0 +23.7 77 +38 +38 очень
душно
1004.8 1002.1
18 13.09 З 3 4000 м в посл. час морось 9/6 300 м
[St]
+27.0 +23.9 83 +37 +37 очень
душно
1005.7 1003.0 0.0
21 13.09 ЮЗ 3 4000 м 9/6 300 м
[St]
+27.0 +23.9 83 +37 +37 очень
душно
1004.1 1001.4
00 14.09 ЮЗ 3 4000 м 9/6 300 м
[St]
+27.0 +23.9 83 +37 +37 очень
душно
1003.6 1000.9
03 14.09 ЮЗ 2 4000 м дым 9/6 300 м
[St]
+28.0 +22.9 74 +37 +38 очень
душно
1005.1 1002.4 +26.1
06 14.09 ЮЗ 3 4000 м дым 9/6 300 м
[St]
+29.5 +23.0 68 +39 +43 очень
душно
1007.1 1004.4
09 14.09 ЮЗ 3 4000 м дым 9/6 300 м
[St]
+30.0 +22.8 65 +40 +43 очень
душно
1005.7 1003.0
12 14.09 ЮЗ 3 4000 м дым 9/6 300 м
[St]
+29.0 +23.2 71 +39 +40 очень
душно
1005.6 1002.9 +33.3
15 14.09 ЮЗ 2 4000 м дым 9/6 300 м
[St]
+28.0 +24.4 81 +39 +39 очень
душно
1007.1 1004.4
18 14.09 ЮЗ 3 4000 м дым 5/5 200 м
[St]
+27.5 +23.9 81 +38 +38 очень
душно
1008.4 1005.7
21 14.09 ЮЗ 3 4000 м 6/6 200 м
[St]
+27.0 +24.1 84 +37 +37 очень
душно
1007.6 1004.9
00 15.09 ЮЗ 3 4000 м 6/6 200 м
[St]
+26.5 +23.6 84 +36 +36 очень
душно
1007.0 1004.3
03 15.09 ЮЗ 3 4000 м дым 8/6 300 м
[St]
+27.5 +24.7 85 +39 +40 очень
душно
1008.4 1005.7 +25.5
06 15.09 ЮЗ 3 4000 м мгла 6/6 300 м
[St]
+30.0 +22.8 65 +40 +45 очень
душно
1009.9 1007.2
09 15.09 ЮЗ 4 4000 м мгла 8/8 200 м
[St]
+31.5 +22.9 60 +41 +44 опасность
перегрева
1008.4 1005.7
12 15.09 ЮЗ 4 4000 м 9/6 300 м
[St]
+30.0 +22.8 65 +40 +40 очень
душно
1007.1 1004.4 +32.1
15 15.09 ЮЗ 3 4000 м 3/3 200 м
[St]
+28.0 +22.1 70 +36 +36 очень
душно
1008.1 1005.4
18 15.09 ЮЗ 2 4000 м 6/6 200 м
[St]
+27.0 +23.1 79 +36 +36 очень
душно
1008.6 1005.9
21 15.09 ЮЗ 2 4000 м 9/6 300 м
[St]
+27.0 +23.1 79 +36 +36 очень
душно
1008.3 1005.6
00 16.09 ЮЗ 3 4000 м 6/6 600 м
[St]
+27.0 +23.4 81 +37 +37 очень
душно
1007.8 1005.1
03 16.09 ЮЗ 2 4000 м дым 9/6 300 м
[St]
+27.5 +23.1 77 +37 +38 очень
душно
1009.1 1006.4 +25.5
06 16.09 ЮЗ 3 4000 м дым 6/6 200 м
[St]
+31.0 +22.3 60 +40 +45 очень
душно
1010.0 1007.3
09 16.09 ЮЗ 3 4000 м мгла 6/6 200 м
[St]
+32.5 +21.5 52 +40 +46 очень
душно
1007.8 1005.2
12 16.09 ЮЗ 4 4000 м 5/5 200 м
[St]
+30.0 +22.8 65 +40 +41 очень
душно
1007.0 1004.3 +33.1
15 16.09 ЮЗ 2 4000 м 3/3 200 м
[St]
+28.0 +22.9 74 +37 +37 очень
душно
1007.7 1005.0
18 16.09 ЮЗ 2 4000 м 6/6 200 м
[St]
+28.0 +22.9 74 +37 +37 очень
душно
1008.1 1005.4
21 16.09 ЮЗ 3 4000 м 9/6 300 м
[St]
+27.5 +23.1 77 +37 +37 очень
душно
1007.3 1004.6
00 17.09 З 3 4000 м 5/5 200 м
[St]
+27.0 +22.6 77 +36 +36 очень
душно
1007.1 1004.4
03 17.09 З 2 4000 м дым 5/5 200 м
[St]
+27.5 +23.1 77 +37 +38 очень
душно
1008.2 1005.5 +25.5
06 17.09 З 3 4000 м дым 6/6 200 м
[St]
+30.5 +20.9 57 +38 +43 очень
душно
1008.8 1006.1
09 17.09 ЮЗ 3 4000 м мгла 6/6 200 м
[St]
+32.0 +20.9 52 +39 +45 очень
душно
1007.3 1004.7
12 17.09 ЮЗ 6 4000 м 4/4 600 м
[St]
+31.0 +21.4 57 +39 +40 очень
душно
1006.4 1003.7 +32.5
15 17.09 ЮЗ 2 4000 м 6/5 200 м
[St]
+28.0 +22.1 70 +36 +36 очень
душно
1007.6 1004.9
18 17.09 ЮЗ 2 4000 м 5/5 200 м
[St]
+27.0 +22.4 76 +35 +35 очень
душно
1008.7 1006.0
21 17.09 ЮЗ 3 4000 м 6/6 200 м
[St]
+27.0 +22.6 77 +36 +36 очень
душно
1007.6 1004.9
00 18.09 ЮЗ 3 4000 м 5/5 200 м
[St]
+26.5 +22.9 81 +35 +35 очень
душно
1007.4 1004.7
03 18.09 З 2 4000 м дым 5/5 200 м
[St]
+27.0 +23.4 81 +37 +38 очень
душно
1008.7 1006.0 +25.5
06 18.09 З 3 4000 м дым 9/6 300 м
[St]
+30.0 +22.0 62 +39 +42 очень
душно
1009.9 1007.2
09 18.09 ЮЗ 3 4000 м 3/3 200 м
[St]
+32.0 +22.6 58 +42 +51 опасность
перегрева
1007.5 1004.9
12 18.09 ЮЗ 5 4000 м 3/3 600 м
[St]
+31.0 +22.3 60 +40 +41 очень
душно
1006.7 1004.0 +32.5

 

Местоположение метеостанции Karachi (Пакистан): широта 24.90 долгота 67.13 высота над уровнем моря 22 м.

В архиве по умолчанию представлена погода в Karachi за последнюю неделю. Архивные данные за месяц целиком и за предыдущие месяцы, начиная с января 2011 года, Вы можете получить, выбрав интересующий диапазон дат из раскрывающегося списка и нажав кнопку "Ввод!".


*Определитесь, кто Вы:
робот инопланетянин человек

Внимание! Время в таблицах - всемирное. Для получения местного времени необходимо прибавить поправку, которая в Karachi равна 5 ч.

Смотрите также архив погоды в соседних городах и на ближайших метеорологических станциях:

Погода в Sakrand (Пакистан) (118 км)
Погода в Hyderabad (Пакистан) (140 км)
Погода в Badin (Пакистан) (181 км)
Погода в Nawabshah (Пакистан) (195 км)
Погода в Pad Idan (Пакистан) (239 км)
Погода в Naliya (Gujarat, Индия) (253 км)
Погода в Chhor (Пакистан) (275 км)
Погода в Bhuj-Rudramata (Gujarat, Индия) (317 км)
Погода в Mandvi (Gujarat, Индия) (318 км)
Погода в Khuzdar (Пакистан) (330 км)

Пояснения к столбцам:

Ветер - указаны скорость ветра в м/с - средняя за 10 мин, порывы в срок и между сроками (в фигурных скобках) и направление, откуда дует ветер: С - северный, СВ - северо-восточный, В - восточный, ЮВ - юго-восточный, Ю - южный, ЮЗ - юго-западный, З - западный, СЗ - северо-западный.
Видимость - горизонтальная дальность видимости в метрах или километрах. При видимости от 1 до 10 км при отсутствии осадков обычно наблюдается дымка, при ухудшении видимости до 1 км и менее - туман. В сухую погоду видимость может ухудшаться дымом, пылью или мглою.
Явления - указаны атмосферные явления, наблюдавшиеся в срок или в последний час перед сроком; фигурными скобками обозначены явления, наблюдавшиеся между сроками (за 1-3 часа до срока); квадратными скобками обозначены град или гололедные отложения с указанием их диаметра в мм.
Облачность - указаны через наклонную черту общая и нижняя облачность в баллах и высота нижней границы облаков в метрах; квадратными скобками обозначены формы облаков: Ci - перистые, Cs - перисто-слоистые, Cc - перисто-кучевые, Ac - высококучевые, As - высокослоистые, Sc - слоисто-кучевые, Ns - слоисто-дождевые, Cu - кучевые, Cb - кучево-дождевые. Подробнее классификацию облаков см. в Атласе облаков (PDF).
T - Температура воздуха - температура, измеренная на высоте 2 м над землей.
Td - Температура точки росы - температура, при понижении до которой содержащийся в воздухе водяной пар достигнет насыщения.
f - Относительная влажность воздуха - влажноcть воздуха, измеренная на высоте 2 м над землей.
Te - Эффективная температура - температура, которую ощущает одетый по сезону человек в тени. Характеристика душности погоды. При расчете учитывается влияние влажности воздуха и скорости ветра на теплоощущения человека.
Tes - Эффективная температура на солнце - температура, которую ощущает человек, с поправкой на солнечный нагрев. Характеристика знойности погоды. Зависит от высоты солнца над горизонтом, облачности и скорости ветра. Ночью, в пасмурную погоду, а также при ветре 12 м/с и более поправка равна нулю.
P - Атмосферное давление - приведенное к уровню моря атмосферное давление.
Po - Атмосферное давление - измеренное на уровне метеостанции атмосферное давление.
Tmin - Минимальная температура - минимум температуры воздуха на высоте 2 м над землей.
Tmax - Максимальная температура - максимум температуры воздуха на высоте 2 м над землей.
R - Количество осадков - Количество выпавших осадков за период времени, мм. При наведении курсора мыши на число - период времени, за который выпало указанное количество осадков.
R24 - Количество осадков - Количество выпавших осадков за 24 часа, мм.
S - Снежный покров - Высота снежного покрова, см. При наведении курсора мыши на число - состояние снежного покрова и степень покрытия местности в баллах.